TITAN 3C TRANSTAGE R/B

基本信息
目录编号:
11560
目录名称:
TITAN 3C TRANSTAGE R/B
国际标识:
1979-086C
轨道中心:
EARTH
物体状态:
在轨
发射日期:
1979-10-01 UTC
国别:
美国 (US)
轨道信息
数据来源: 国际轨道数据
星历时间: 2026-07-13T16:22:06+0800
半长轴: 42330.659km
偏心率: 0.1297074
轨道倾角: 5.860°
近地点辐角: 126.617°
升交点赤经: 12.738°
平近点角: 246.174°
近地点: 30461.922km
远地点: 41443.122km
周期: 1444.582分钟
每日圈数: 0.996828
详细信息
发射场:
AFETR
轨道高度:
MEO
数据来源:
AOE Integration Group
参考系:
TEME
时间系统:
UTC
历元类型:
SGP4
2D轨道图
3D轨道图
轨道高度分析图
轨道倾角分析图
轨道综合分析图
查看轨道综合分析图